Tracking 18673 objects as of 26-June-2017
HD Live streaming from Space Station
objects crossing your sky now

ATLAS CENTAUR DEB

Track ATLAS CENTAUR DEB now!


NORAD ID: 25253
Int'l Code: 1978-068C
Perigee: 864.1 km
Apogee: 35,594.6 km
Inclination: 21.9 °
Period: 640.0 minutes
Semi major axis: 24600 km
RCS: 0.1092 m2 (medium)
Launch date: June 29, 1978
Source: United States (US)
Launch site: AIR FORCE EASTERN TEST RANGE (AFETR)

Note: This is SATELLITE DEBRIS
Your satellite tracking list
Your tracking list is empty





NASA's NSSDC Master Catalog

Two Line Element Set (TLE):
1 25253U 78068C   17175.21645772 -.00000139 +00000-0 -45119-2 0  9998
2 25253 021.9378 047.8580 7058948 334.3864 293.7498 02.25004851164092
Source of the keplerian elements: AFSPC